Weather History for Easton, MD

Change the Weather History Date:

Monday, August 25, 2014

  Actual Average Record
Temperature  
Mean Temperature 72 °F -  
Max Temperature 84 °F 86 °F 97 °F (1968)
Min Temperature 59 °F 62 °F 50 °F (1952)
Cooling Degree Days 6    
Growing Degree Days 22 (Base 50)    
Moisture  
Dew Point 62 °F    
Average Humidity 86    
Maximum Humidity 100    
Minimum Humidity 42    
Precipitation  
Precipitation 0.00 in - - ()
Sea Level Pressure  
Sea Level Pressure 30.18 in    
Wind  
Wind Speed 2 mph (East)    
Max Wind Speed 13 mph    
Max Gust Speed 20 mph    
Visibility 10 miles    
Events      
Averages and records for this station are not official NWS values.
T = Trace of Precipitation, MM = Missing Value Source: NWS Daily Summary

Daily Weather History Graph

Daily Weather History Graph

Search for Another Location

Airport:

Trip Planner

Search our weather history database for the weather conditions in past years. The results will help you decide how hot, cold, wet, or windy it might be!

Date:

Astronomy

Aug. 25, 2014 Rise Set
Actual Time 6:27 AM EDT 7:44 PM EDT
Civil Twilight 5:59 AM EDT 8:12 PM EDT
Nautical Twilight 5:26 AM EDT 8:45 PM EDT
Astronomical Twilight 4:51 AM EDT 9:20 PM EDT
Moon 6:29 AM EDT (8/25) 7:34 PM EDT (8/25)
Length of Visible Light 14h 13m
Length of Day
13h 17m
New Moon, 0% of the Moon is Illuminated
Aug 25
New Moon
Sep 2
First Quarter
Sep 8
Full
Sep 15
Last Quarter
Sep 24
New

Hourly Weather History & Observations

Time (EDT) Temp. Heat Index Dew Point Humidity Pressure Visibility Wind Dir Wind Speed Gust Speed Precip Events Conditions
12:18 AM 66.2 °F - 65.3 °F 97% 30.18 in 10.0 mi Calm Calm - N/A   Clear
12:38 AM 64.8 °F - 64.8 °F 100% 30.18 in 10.0 mi Calm Calm - N/A   Clear
12:58 AM 63.5 °F - 63.5 °F 100% 30.18 in 10.0 mi Calm Calm - N/A   Clear
1:18 AM 63.3 °F - 63.3 °F 100% 30.18 in 10.0 mi Calm Calm - N/A   Clear
1:38 AM 63.0 °F - 63.0 °F 100% 30.18 in 10.0 mi Calm Calm - N/A   Clear
1:58 AM 63.0 °F - 63.0 °F 100% 30.18 in 10.0 mi Calm Calm - N/A   Clear
2:18 AM 62.2 °F - 62.2 °F 100% 30.18 in 10.0 mi Calm Calm - N/A   Clear
2:38 AM 61.5 °F - 61.5 °F 100% 30.18 in 10.0 mi Calm Calm - N/A   Clear
2:58 AM 61.2 °F - 61.2 °F 100% 30.18 in 10.0 mi Calm Calm - N/A   Clear
3:18 AM 61.7 °F - 61.7 °F 100% 30.18 in 10.0 mi Calm Calm - N/A   Clear
3:38 AM 62.6 °F - 62.6 °F 100% 30.18 in 10.0 mi Calm Calm - N/A   Clear
3:58 AM 62.1 °F - 62.1 °F 100% 30.18 in 10.0 mi Calm Calm - N/A   Clear
4:18 AM 60.4 °F - 60.4 °F 100% 30.18 in 10.0 mi Calm Calm - N/A   Clear
4:38 AM 60.8 °F - 60.8 °F 100% 30.18 in 10.0 mi Calm Calm - N/A   Clear
4:59 AM 59.9 °F - 59.9 °F 100% 30.17 in 10.0 mi Calm Calm - N/A   Clear
5:19 AM 60.1 °F - 60.1 °F 100% 30.17 in 10.0 mi Calm Calm - N/A   Clear
5:39 AM 59.9 °F - 59.9 °F 100% 30.16 in 10.0 mi Calm Calm - N/A   Clear
5:50 AM 59.0 °F - 59.0 °F 100% 30.17 in 10.0 mi Calm Calm - N/A   Clear
5:59 AM 60.1 °F - 60.1 °F 100% 30.17 in 10.0 mi Calm Calm - N/A   Clear
6:19 AM 59.9 °F - 59.9 °F 100% 30.17 in 10.0 mi Calm Calm - N/A   Clear
6:26 AM 60.1 °F - 60.1 °F 100% 30.17 in 10.0 mi Calm Calm - N/A   Clear
6:53 AM 60.8 °F - 60.8 °F 100% 30.18 in 10.0 mi Calm Calm - N/A   Clear
7:48 AM 64.4 °F - 64.4 °F 100% 30.19 in 10.0 mi ENE 8.1 mph - N/A   Clear
8:50 AM 68.0 °F - 68.0 °F 100% 30.20 in 10.0 mi NE 9.2 mph - N/A   Clear
9:50 AM 73.4 °F - 64.4 °F 73% 30.20 in 10.0 mi NE 10.4 mph - N/A   Clear
10:50 AM 77.0 °F - 60.8 °F 57% 30.21 in 10.0 mi East 12.7 mph 19.6 mph N/A   Partly Cloudy
12:50 PM 80.6 °F 80.8 °F 57.2 °F 45% 30.21 in 10.0 mi East 10.4 mph - N/A   Partly Cloudy
1:50 PM 82.4 °F 82.5 °F 59.0 °F 45% 30.20 in 10.0 mi SE 9.2 mph - N/A   Partly Cloudy
2:50 PM 82.4 °F 82.5 °F 59.0 °F 45% 30.18 in 10.0 mi ESE 11.5 mph - N/A   Scattered Clouds
3:50 PM 84.2 °F 83.8 °F 59.0 °F 42% 30.17 in 10.0 mi East 11.5 mph 17.3 mph N/A   Scattered Clouds
4:50 PM 82.4 °F 82.0 °F 57.2 °F 42% 30.17 in 10.0 mi ESE 9.2 mph - N/A   Scattered Clouds
5:50 PM 82.4 °F 82.5 °F 59.0 °F 45% 30.18 in 10.0 mi East 9.2 mph - N/A   Partly Cloudy
6:50 PM 80.6 °F 81.1 °F 59.0 °F 48% 30.18 in 10.0 mi East 9.2 mph - N/A   Scattered Clouds
7:50 PM 75.2 °F - 62.6 °F 65% 30.18 in 10.0 mi Calm Calm - N/A   Scattered Clouds
8:53 PM 68.0 °F - 62.6 °F 83% 30.18 in 10.0 mi Calm Calm - N/A   Scattered Clouds
10:40 PM 68.0 °F - 64.2 °F 88% 30.18 in 10.0 mi Calm Calm - N/A   Clear
11:01 PM 66.6 °F - 63.7 °F 90% 30.18 in 10.0 mi Calm Calm - N/A   Clear
11:21 PM 66.2 °F - 64.4 °F 94% 30.18 in 10.0 mi Calm Calm - N/A   Clear
11:41 PM 64.4 °F - 64.4 °F 100% 30.18 in 10.0 mi Calm Calm - N/A   Clear